When you browse on this site, cookies collect data to enhance your experience and personalize the content and advertising you see.
Visit our Privacy Policy to learn more. By continuing to use the site, you agree to this use of cookies and data.
  • In United Kingdom
  • List of Countries
  • For 7 days
  • Water Temperature
  • Satellite Maps
  • Weather Map
  • Weather Widgets
  • user-avatar
    Login

    Hourly Weather Abertillery

    Today, 15 December, Saturday

    Time Temperature Precipitation Wind Pressure Humidity
    00:00 -1°C° 0 mm 8 mps 742 mmHg 76%
    01:00 -1°C° 0.2 mm 9 mps 741 mmHg 77%
    02:00 -1°C° 0.2 mm 9 mps 740 mmHg 78%
    03:00 -1°C° 0.2 mm 9 mps 740 mmHg 79%
    04:00 -1°C° 0.5 mm 9 mps 739 mmHg 81%
    05:00 -1°C° 0.5 mm 9 mps 738 mmHg 83%
    06:00 -2°C° 0 mm 10 mps 738 mmHg 82%
    07:00 -2°C° 0.8 mm 10 mps 737 mmHg 85%
    08:00 -2°C° 0.8 mm 10 mps 736 mmHg 87%
    09:00 0°C° 0.8 mm 10 mps 736 mmHg 89%
    10:00 0°C° 1.2 mm 10 mps 734 mmHg 90%
    11:00 +1°C° 1.2 mm 11 mps 733 mmHg 90%
    12:00 +1°C° 0 mm 10 mps 733 mmHg 90%
    13:00 +1°C° 2 mm 11 mps 731 mmHg 91%
    14:00 +2°C° 2 mm 11 mps 729 mmHg 92%
    15:00 +3°C° 2 mm 11 mps 728 mmHg 92%
    16:00 +4°C° 0.6 mm 11 mps 727 mmHg 90%
    17:00 +6°C° 0.6 mm 10 mps 727 mmHg 88%
    18:00 +7°C° 0.6 mm 10 mps 726 mmHg 85%
    19:00 +6°C° 0.1 mm 10 mps 727 mmHg 83%
    20:00 +5°C° 0.1 mm 10 mps 728 mmHg 81%
    21:00 +5°C° 0.1 mm 10 mps 728 mmHg 79%
    22:00 +3°C° 0 mm 9 mps 729 mmHg 81%
    23:00 +4°C° 0 mm 8 mps 730 mmHg 82%

    Tomorrow, 16 December, Sunday

    Time Temperature Precipitation Wind Pressure Humidity
    00:00 +3°C° 0 mm 6 mps 731 mmHg 83%
    01:00 +3°C° 0.1 mm 6 mps 731 mmHg 85%
    02:00 +2°C° 0.1 mm 5 mps 732 mmHg 86%
    03:00 +2°C° 0.1 mm 5 mps 732 mmHg 88%
    04:00 +2°C° 0.1 mm 5 mps 732 mmHg 88%
    05:00 +3°C° 0.1 mm 4 mps 733 mmHg 88%
    06:00 +3°C° 0.1 mm 4 mps 733 mmHg 89%
    07:00 +3°C° 0 mm 4 mps 733 mmHg 89%
    08:00 +3°C° 0 mm 4 mps 733 mmHg 89%
    09:00 +3°C° 0 mm 4 mps 733 mmHg 90%
    10:00 +4°C° 0.1 mm 4 mps 733 mmHg 88%
    11:00 +5°C° 0.1 mm 4 mps 733 mmHg 85%
    12:00 +6°C° 0.1 mm 4 mps 733 mmHg 83%
    13:00 +6°C° 0.4 mm 4 mps 733 mmHg 85%
    14:00 +5°C° 0.4 mm 4 mps 733 mmHg 86%
    15:00 +5°C° 0.4 mm 3 mps 733 mmHg 88%
    16:00 +5°C° 0.3 mm 3 mps 734 mmHg 89%
    17:00 +4°C° 0.3 mm 3 mps 734 mmHg 90%
    18:00 +4°C° 0.3 mm 3 mps 734 mmHg 92%
    19:00 +3°C° 0 mm 3 mps 735 mmHg 91%
    20:00 +3°C° 0 mm 3 mps 735 mmHg 90%
    21:00 +3°C° 0 mm 3 mps 736 mmHg 90%
    22:00 +3°C° 0 mm 3 mps 737 mmHg 89%
    23:00 +3°C° 0 mm 3 mps 737 mmHg 89%

    Day after tomorrow, 17 December, Monday

    Time Temperature Precipitation Wind Pressure Humidity
    00:00 +3°C° 0 mm 3 mps 738 mmHg 89%
    01:00 +2°C° 0 mm 3 mps 738 mmHg 89%
    02:00 +2°C° 0 mm 3 mps 738 mmHg 89%
    03:00 +2°C° 0 mm 3 mps 739 mmHg 89%
    04:00 +2°C° 0 mm 3 mps 739 mmHg 90%
    05:00 +2°C° 0 mm 3 mps 740 mmHg 90%
    06:00 +2°C° 0 mm 3 mps 740 mmHg 90%
    07:00 +3°C° 0 mm 4 mps 740 mmHg 90%
    08:00 +3°C° 0 mm 4 mps 741 mmHg 90%
    09:00 +3°C° 0 mm 4 mps 741 mmHg 91%
    10:00 +5°C° 0 mm 5 mps 741 mmHg 88%
    11:00 +5°C° 0 mm 6 mps 741 mmHg 86%
    12:00 +7°C° 0 mm 6 mps 741 mmHg 84%
    13:00 +7°C° 0 mm 6 mps 741 mmHg 85%
    14:00 +6°C° 0 mm 7 mps 740 mmHg 86%
    15:00 +6°C° 0 mm 7 mps 740 mmHg 88%
    16:00 +8°C° 0 mm 7 mps 740 mmHg 88%
    17:00 +7°C° 0 mm 8 mps 740 mmHg 89%
    18:00 +7°C° 0 mm 8 mps 740 mmHg 89%
    19:00 +7°C° 0.1 mm 8 mps 740 mmHg 89%
    20:00 +7°C° 0.1 mm 8 mps 740 mmHg 89%
    21:00 +7°C° 0.1 mm 8 mps 739 mmHg 88%
    22:00 +7°C° 0.2 mm 9 mps 739 mmHg 88%
    23:00 +8°C° 0.2 mm 9 mps 739 mmHg 88%

    18 December, Tuesday

    Time Temperature Precipitation Wind Pressure Humidity
    00:00 +8°C° 0.2 mm 9 mps 739 mmHg 87%
    01:00 +8°C° 0.1 mm 9 mps 738 mmHg 87%
    02:00 +7°C° 0.1 mm 10 mps 738 mmHg 86%
    03:00 +7°C° 0.1 mm 10 mps 737 mmHg 85%
    04:00 +7°C° 0 mm 10 mps 736 mmHg 84%
    05:00 +7°C° 0 mm 10 mps 735 mmHg 83%
    06:00 +7°C° 0 mm 11 mps 735 mmHg 81%
    07:00 +7°C° 0.3 mm 11 mps 734 mmHg 81%
    08:00 +5°C° 0.3 mm 12 mps 733 mmHg 81%
    09:00 +5°C° 0.3 mm 12 mps 732 mmHg 81%
    10:00 +5°C° 1.4 mm 13 mps 731 mmHg 82%
    11:00 +5°C° 1.4 mm 13 mps 731 mmHg 83%
    12:00 +5°C° 1.4 mm 13 mps 730 mmHg 83%
    13:00 +5°C° 1.6 mm 13 mps 729 mmHg 84%
    14:00 +5°C° 1.6 mm 12 mps 729 mmHg 85%
    15:00 +5°C° 1.6 mm 12 mps 728 mmHg 86%
    16:00 +7°C° 2.2 mm 11 mps 728 mmHg 88%
    17:00 +7°C° 2.2 mm 10 mps 728 mmHg 90%
    18:00 +7°C° 2.2 mm 9 mps 728 mmHg 91%
    19:00 +6°C° 0.6 mm 8 mps 728 mmHg 88%
    20:00 +5°C° 0.6 mm 7 mps 729 mmHg 85%
    21:00 +4°C° 0.6 mm 7 mps 730 mmHg 83%
    22:00 +4°C° 0.1 mm 6 mps 731 mmHg 84%
    23:00 +4°C° 0.1 mm 6 mps 731 mmHg 85%

    19 December, Wednesday

    Time Temperature Precipitation Wind Pressure Humidity
    00:00 +4°C° 0.1 mm 6 mps 732 mmHg 87%
    01:00 +5°C° 0.1 mm 5 mps 732 mmHg 87%
    02:00 +3°C° 0.1 mm 5 mps 733 mmHg 88%
    03:00 +3°C° 0.1 mm 5 mps 733 mmHg 88%
    04:00 +3°C° 0.2 mm 5 mps 733 mmHg 89%
    05:00 +4°C° 0.2 mm 4 mps 734 mmHg 89%
    06:00 +4°C° 0.2 mm 4 mps 734 mmHg 90%
    07:00 +4°C° 0.1 mm 4 mps 734 mmHg 89%
    08:00 +3°C° 0.1 mm 4 mps 735 mmHg 89%
    09:00 +3°C° 0.1 mm 4 mps 735 mmHg 88%
    10:00 +4°C° 0.1 mm 4 mps 735 mmHg 84%
    11:00 +5°C° 0.1 mm 5 mps 736 mmHg 80%
    12:00 +6°C° 0.1 mm 5 mps 736 mmHg 76%
    13:00 +6°C° 0.1 mm 5 mps 736 mmHg 77%
    14:00 +6°C° 0.1 mm 5 mps 736 mmHg 79%
    15:00 +5°C° 0.1 mm 5 mps 736 mmHg 80%
    16:00 +5°C° 0.2 mm 5 mps 736 mmHg 82%
    17:00 +4°C° 0.2 mm 4 mps 736 mmHg 84%
    18:00 +4°C° 0.2 mm 4 mps 736 mmHg 86%
    19:00 +4°C° 0.1 mm 4 mps 736 mmHg 87%
    20:00 +4°C° 0.1 mm 4 mps 737 mmHg 88%
    21:00 +3°C° 0.1 mm 4 mps 737 mmHg 88%
    22:00 +3°C° 0.1 mm 4 mps 737 mmHg 88%
    23:00 +3°C° 0.1 mm 4 mps 737 mmHg 88%

    20 December, Thursday

    Time Temperature Precipitation Wind Pressure Humidity
    00:00 +2°C° 0.1 mm 5 mps 737 mmHg 88%
    01:00 +2°C° 0.1 mm 5 mps 737 mmHg 88%
    02:00 +3°C° 0.1 mm 5 mps 737 mmHg 88%
    03:00 +3°C° 0.1 mm 6 mps 738 mmHg 88%
    04:00 +3°C° 0.3 mm 5 mps 738 mmHg 88%
    05:00 +3°C° 0.3 mm 5 mps 738 mmHg 88%
    06:00 +3°C° 0.3 mm 5 mps 739 mmHg 88%
    07:00 +3°C° 0.1 mm 5 mps 739 mmHg 88%
    08:00 +4°C° 0.1 mm 4 mps 739 mmHg 89%
    09:00 +3°C° 0.1 mm 4 mps 740 mmHg 89%
    10:00 +4°C° 0 mm 4 mps 740 mmHg 86%
    11:00 +6°C° 0 mm 5 mps 740 mmHg 83%
    12:00 +7°C° 0 mm 5 mps 741 mmHg 79%
    13:00 +6°C° 0 mm 5 mps 740 mmHg 81%
    14:00 +6°C° 0 mm 5 mps 740 mmHg 82%
    15:00 +6°C° 0 mm 4 mps 740 mmHg 84%
    16:00 +5°C° 0 mm 5 mps 740 mmHg 85%
    17:00 +5°C° 0 mm 5 mps 740 mmHg 86%
    18:00 +5°C° 0 mm 5 mps 739 mmHg 87%
    19:00 +5°C° 0.9 mm 6 mps 739 mmHg 89%
    20:00 +5°C° 0.9 mm 8 mps 738 mmHg 91%
    21:00 +6°C° 0.9 mm 9 mps 737 mmHg 92%
    22:00 +7°C° 2.4 mm 9 mps 736 mmHg 92%
    23:00 +8°C° 2.4 mm 10 mps 735 mmHg 92%
    Show more